Location: Obersdorf
(47.4079°N, 10.2781°E)
Time: 02:56:10
(UTC+01:00)

XW-2C - Pass Details

Date: 04 December 2021
Orbit: 503 x 523 km, 97.5° (Epoch: 16 January)

Event Time Altitude Azimuth Distance (km) Brightness Sun altitude
Rises 17:01:15 0° 153° (SSE) 2,613 ? -5.5°
Reaches altitude 10° 17:03:21 10° 149° (SSE) 1,735 ? -5.9°
Maximum altitude 17:06:59 52° 73° (ENE) 653 ? -6.4°
Drops below altitude 10° 17:10:41 10° 357° (N) 1,762 ? -7.0°
Sets 17:12:50 0° 352° (N) 2,658 ? -7.3°
